Home   Weather   Cali   Past weeks

Flag for Colombia Past Weather in Cali, Colombia — Yesterday and Last 2 Weeks

79 °F

Partly sunny.

Feels Like: 81 °F
Forecast: 68 / 81 °F
Wind: 5 mph from South

Location: Cali / Alfonso Bonillaaragon

Current Time: Oct 26, 2016 at 10:26:07 AM

Latest Report: Oct 26, 2016 at 10:00 AM

Visibility: 6 mi

Pressure: 30.04 "Hg (26.94 "Hg at 955m altitude)

Humidity: 65%

Dew Point: 66 °F

Location of CaliLocation

Past Weather in Cali — Graph


Cali Temperature Yesterday

Maximum temperature yesterday: 77 °F (at 11:00 AM)
Minimum temperature yesterday: 66 °F (at 3:00 AM)
Average temperature yesterday: 71 °F

High & Low Weather Summary for the Past Weeks

High90 °F (Oct 13, 2:00 PM)100% (Oct 11, 11:00 PM)30.14 "Hg (Oct 11, 11:00 PM)
Low64 °F (Oct 16, 1:00 AM)46% (Oct 24, 2:00 PM)29.82 "Hg (Oct 21, 3:00 PM)
Average75 °F80%29.98 "Hg
* Reported Oct 11 9:00 AM — Oct 26 9:00 AM, Cali, Weather by CustomWeather, © 2016

Note: Actual official high and low records may vary slightly from our data, if they occured in-between our weather recording intervals... More about our weather records


Cali Weather History for the Previous 24 Hours

Scroll right to see more
Time TempWeatherWind HumidityBarometerVisibility
9:00 AM
Wed, Oct 26
75 °FBroken clouds.3 mph83%30.06 "Hg5 mi
8:00 AM72 °FPartly sunny.2 mph88%30.04 "Hg4 mi
7:00 AM66 °FBroken clouds.No wind100%30.02 "Hg4 mi
6:00 AM66 °FFog.No wind100%30.00 "Hg3 mi
5:00 AM66 °FPassing clouds.2 mph100%29.98 "Hg5 mi
4:00 AM68 °FPassing clouds.2 mph100%29.98 "HgN/A
3:00 AM68 °FPartly cloudy.2 mph100%29.98 "HgN/A
2:00 AM68 °FPassing clouds.2 mph100%29.99 "HgN/A
1:00 AM68 °FPassing clouds.3 mph100%30.01 "HgN/A
12:00 AM66 °FPartly cloudy.2 mph100%30.03 "HgN/A
11:00 PM
Tue, Oct 25
68 °FPassing clouds.2 mph100%30.05 "HgN/A
10:00 PM70 °FPartly cloudy.No wind88%30.05 "HgN/A
9:00 PM68 °FPartly cloudy.2 mph94%30.03 "HgN/A
8:00 PM72 °FPassing clouds.7 mph83%30.00 "HgN/A
7:00 PM72 °FPartly cloudy.8 mph83%29.97 "HgN/A
6:00 PM72 °FScattered showers. Partly cloudy.5 mph83%29.95 "HgN/A
5:00 PM75 °FBroken clouds.9 mph74%29.93 "HgN/A
4:00 PM77 °FBroken clouds.12 mph69%29.92 "HgN/A
3:00 PM77 °FBroken clouds.13 mph79%29.92 "HgN/A
2:00 PM75 °FBroken clouds.9 mph78%29.95 "HgN/A
1:00 PM75 °FScattered showers. Broken clouds.8 mph83%29.99 "Hg6 mi
12:00 PM75 °FScattered showers. Broken clouds.9 mph78%30.02 "HgN/A
11:00 AM77 °FBroken clouds.3 mph69%30.05 "HgN/A
10:00 AM75 °FBroken clouds.2 mph78%30.07 "HgN/A
Weather by CustomWeather, © 2016

See weather overviewHow to use our weather pages